logo tempoitalia

Diretta Meteo Belgorod, Russialunedì 31 agosto ore 09:00

Mappa
Sereno 19 °C Sereno 24 Ore: T.min 17 T.max 27
Ponente Sud-Ovest Km/h 10.8 Punto di rugiada: 7 °C Umidità: 45% Visibilità: 10 Km
Il sole sorge alle: 05:46 Il sole tramonta alle: 19:21
31 Agosto 2026 09:00 tempo osservato: Sereno Sereno 19 45 1022 vento: Nord SO 10.8
31 Agosto 2026 08:30 tempo osservato: Sereno Sereno 18 48 1022 vento: Nord S/SO 10.8
31 Agosto 2026 08:00 tempo osservato: Sereno Sereno 18 48 1021 vento: Nord S/SO 14.4
31 Agosto 2026 07:30 tempo osservato: Sereno Sereno 18 48 1021 vento: Nord S/SO 10.8
31 Agosto 2026 07:00 tempo osservato: Sereno Sereno 18 48 1021 vento: Nord S/SO 14.4
31 Agosto 2026 06:30 tempo osservato: Sereno Sereno 17 51 1021 vento: Nord S/SO 10.8
31 Agosto 2026 06:00 tempo osservato: Sereno Sereno 18 48 1021 vento: Nord S/SO 14.4
31 Agosto 2026 05:30 tempo osservato: Sereno Sereno 18 45 1021 vento: Nord S/SO 14.4
31 Agosto 2026 05:00 tempo osservato: Sereno Sereno 19 42 1021 vento: Nord S/SO 14.4
31 Agosto 2026 04:30 tempo osservato: Sereno Sereno 18 48 1021 vento: Nord S 10.8
31 Agosto 2026 04:00 tempo osservato: Sereno Sereno 19 45 1021 vento: Nord S/SO 14.4
31 Agosto 2026 03:30 tempo osservato: Sereno Sereno 19 45 1021 vento: Nord S/SO 10.8
31 Agosto 2026 03:00 tempo osservato: Sereno Sereno 20 39 1021 vento: Nord S 18
31 Agosto 2026 02:30 tempo osservato: Sereno Sereno 19 45 1021 vento: Nord S 10.8
31 Agosto 2026 02:00 tempo osservato: Sereno Sereno 19 48 1021 vento: Nord S/SO 10.8
31 Agosto 2026 01:30 tempo osservato: Sereno Sereno 19 48 1021 vento: Nord S 10.8
31 Agosto 2026 01:00 tempo osservato: Sereno Sereno 19 48 1021 vento: Nord S 10.8
31 Agosto 2026 00:30 tempo osservato: Sereno Sereno 19 48 1021 vento: Nord S 10.8
31 Agosto 2026 00:00 tempo osservato: Sereno Sereno 19 48 1021 vento: Nord S 10.8
30 Agosto 2026 23:30 tempo osservato: Sereno Sereno 19 52 1021 vento: Nord S/SE 10.8
30 Agosto 2026 23:00 tempo osservato: Sereno Sereno 19 48 1021 vento: Nord S/SE 10.8
30 Agosto 2026 22:30 tempo osservato: Sereno Sereno 20 45 1021 vento: Nord S/SE 10.8
30 Agosto 2026 22:00 tempo osservato: Sereno Sereno 20 49 1021 vento: Nord S/SE 10.8
30 Agosto 2026 21:30 tempo osservato: Sereno Sereno 21 43 1021 vento: Nord S/SE 10.8
30 Agosto 2026 21:00 tempo osservato: Sereno Sereno 22 40 1021 vento: Nord N 7.2
30 Agosto 2026 20:30 tempo osservato: Sereno Sereno 22 40 1021 vento: Nord N 7.2
30 Agosto 2026 20:00 tempo osservato: Sereno Sereno 23 38 1020 vento: Nord S/SE 10.8
30 Agosto 2026 19:30 tempo osservato: Sereno Sereno 23 38 1020 vento: Nord N 7.2
30 Agosto 2026 19:00 tempo osservato: Sereno Sereno 24 35 1020 vento: Nord N 7.2
30 Agosto 2026 18:30 tempo osservato: Sereno Sereno 24 35 1020 vento: Nord N 7.2
30 Agosto 2026 18:00 tempo osservato: Sereno Sereno 26 31 1020 vento: Nord S/SE 10.8
30 Agosto 2026 17:30 tempo osservato: Sereno Sereno 26 31 1020 vento: Nord S/SE 10.8
30 Agosto 2026 17:00 tempo osservato: Sereno Sereno 27 30 1020 vento: Nord S/SE 14.4
30 Agosto 2026 16:30 tempo osservato: Sereno Sereno 27 30 1020 vento: Nord SE 14.4
30 Agosto 2026 16:00 tempo osservato: Sereno Sereno 27 30 1020 vento: Nord SE 14.4
30 Agosto 2026 15:30 tempo osservato: Sereno Sereno 27 28 1021 vento: Nord S 14.4
30 Agosto 2026 15:00 tempo osservato: Sereno Sereno 26 31 1021 vento: Nord S 10.8
30 Agosto 2026 14:30 tempo osservato: Sereno Sereno 27 30 1021 vento: Nord S/SO 14.4
30 Agosto 2026 14:00 tempo osservato: Sereno Sereno 27 30 1021 vento: Nord S/SO 14.4
30 Agosto 2026 13:30 tempo osservato: Sereno Sereno 26 31 1021 vento: Nord SO 21.6
30 Agosto 2026 13:00 tempo osservato: Sereno Sereno 25 33 1022 vento: Nord S 14.4
30 Agosto 2026 12:30 tempo osservato: Sereno Sereno 26 31 1022 vento: Nord S/SE 14.4
30 Agosto 2026 12:00 tempo osservato: Sereno Sereno 26 31 1022 vento: Nord SO 14.4
30 Agosto 2026 11:30 tempo osservato: Sereno Sereno 25 36 1022 vento: Nord S 10.8
30 Agosto 2026 11:00 tempo osservato: Sereno Sereno 24 41 1022 vento: Nord S 10.8
30 Agosto 2026 10:30 tempo osservato: Sereno Sereno 22 43 1022 vento: Nord S 10.8
30 Agosto 2026 10:00 tempo osservato: Sereno Sereno 21 46 1022 vento: Nord S/SE 10.8